Regional Weather Roundup
Issued by NWS

Home | Current Version | Previous Version | Graphics & Text | Print | Product List | Glossary Off
Versions: 1 2 3 4 5 6 7 8 9 10 11 12 13 14 15 16 17 18 19 20 21 22 23 24 25 26 27 28 29 30 31 32 33 34 35 36 37 38 39 40 41 42 43 44 45 46 47 48 49 50

000
ASUS43 KDMX 302207
RWRIA

WEATHER ROUNDUP FOR IOWA
NATIONAL WEATHER SERVICE DES MOINES IA
500 PM CDT TUE JUN 30 2015

NOTE: "FAIR" INDICATES FEW OR NO CLOUDS BELOW 12,000 FEET WITH NO
SIGNIFICANT WEATHER AND/OR OBSTRUCTIONS TO VISIBILITY.

* - THESE STATIONS ARE NOT NWS STATIONS...THUS NOT UNDER NWS
QUALITY CONTROL.  THEY ALSO DO NOT REPORT WEATHER SUCH
AS PRECIPITATION OR FOG.

IAZ001>003-012>014-020>022-031>034-043>046-302300-
   NORTHWEST IOWA

CITY           SKY/WX    TMP DP  RH WIND       PRES   REMARKS
CARROLL *      SUNNY     77  63  61 CALM      29.91S
CHEROKEE *     CLOUDY    77  68  73 CALM      29.91S
DENISON *      SUNNY     75  68  78 SW3       29.90S
LE MARS *      LGT RAIN  73  68  83 CALM      29.91F
ORANGE CITY *  SUNNY     73  64  73 CALM      29.91F
SHELDON *      SUNNY     75  64  69 E6        29.90F
SIOUX CITY     LGT RAIN  74  67  78 E6        29.90F
SPENCER        CLOUDY    77  63  61 NE5       29.93S
STORM LAKE *   SUNNY     77  64  65 E5        29.93S
$$

IAZ055>058-069>071-079>083-090>094-302300-
   SOUTHWEST IOWA

CITY           SKY/WX    TMP DP  RH WIND       PRES   REMARKS
ATLANTIC *     SUNNY     75  68  78 NE3       29.92F
AUDUBON *      LGT RAIN  77  66  69 CALM      29.93F
CLARINDA *     CLOUDY    77  73  88 CALM      29.93R
COUNCIL BLFS * MOSUNNY   73  66  78 E9        29.90F
CRESTON *      CLOUDY    77  64  65 NW6       29.92R
HARLAN  *      SUNNY     73  73 100 CALM      29.95F
LAMONI         PTSUNNY   81  68  64 N3        29.90F HX  84
RED OAK *      PTSUNNY   75  68  78 NE8       29.91S
SHENANDOAH *   MOSUNNY   79  66  65 NE7       29.91R HX  81
$$

IAZ047>049-059>061-072>074-084-302300-
   CENTRAL IOWA

CITY           SKY/WX    TMP DP  RH WIND       PRES   REMARKS
AMES           CLOUDY    78  62  57 NW9       29.89F HX  80
ANKENY *       PTSUNNY   79  66  65 NW6       29.89S HX  81
CHARITON *     SUNNY     79  68  69 NW8       29.90F HX  81
DES MOINES     CLOUDY    81  63  54 NW6       29.89S HX  82
GRINNELL*      CLOUDY    77  66  69 W6        29.89F
KNOXVILLE *    SUNNY     77  66  69 NW5       29.88F
MARSHALLTOWN   CLOUDY    76  66  71 NW6       29.88F
PELLA *        CLOUDY    79  70  73 NW9       29.89F HX  81
PERRY *          N/A     77  64  65 NW3       29.90F
$$

IAZ004>006-015-016-023>025-035-036-302300-
   NORTH CENTRAL IOWA

CITY           SKY/WX    TMP DP  RH WIND       PRES   REMARKS
ALGONA *       SUNNY     73  64  73 N5        29.93S
CLARION *      SUNNY     75  63  64 N6        29.91S
ESTHERVILLE    CLOUDY    72  63  73 NE3       29.93S
FORT DODGE *   CLOUDY    75  61  60 N3        29.92S
MASON CITY     CLOUDY    76  61  59 N6        29.92F
FOREST CITY *  SUNNY     72  59  64 N6        29.92F
IOWA FALLS *     N/A     75  63  64 NW6       29.92S
$$

IAZ007>011-017>019-026>030-037>042-050>054-066-302300-
   NORTHEAST IOWA

CITY           SKY/WX    TMP DP  RH WIND       PRES   REMARKS
CEDAR RAPIDS   MOSUNNY   79  63  57 VRB6      29.86S HX  80
CHARLES CITY * MOSUNNY   75  64  69 N7        29.90F
CLINTON *      MOSUNNY   75  63  64 N12       29.88R
DECORAH *        N/A    N/A N/A N/A MISG        N/A
DUBUQUE        MOSUNNY   74  61  63 N12       29.87S
MONTICELLO *   SUNNY     77  77 100 N10       29.86S
OELWEIN *      SUNNY     75  64  69 N10       29.89S
WATERLOO       PTSUNNY   77  62  59 N9        29.87S
$$

IAZ064-065-067-068-078-302300-
   EAST CENTRAL IOWA

CITY           SKY/WX    TMP DP  RH WIND       PRES   REMARKS
DAVENPORT      MOSUNNY   80  64  58 NW7       29.85F HX  82
IOWA CITY      MOSUNNY   80  62  54 NW8       29.87R HX  81
MT. PLEASANT * MOSUNNY   82  61  47 W5        29.87R HX  83
MUSCATINE *    MOSUNNY   81  63  54 N3        29.85S HX  82
QUAD CITIES    SUNNY     81  61  50 NW9       29.84S HX  82
$$

IAZ062-063-075>077-085>089-095>099-302300-
   SOUTHEAST IOWA

CITY           SKY/WX    TMP DP  RH WIND       PRES   REMARKS
BURLINGTON     MOSUNNY   81  66  60 NW6       29.86R HX  83
FAIRFIELD *    MOSUNNY   79  66  65 NW8       29.88R HX  81
FORT MADISON * MOSUNNY   79  70  73 NW3       29.88R HX  81
KEOKUK *       MOSUNNY   81  70  69 W10       29.86S HX  84
OSKALOOSA *      N/A     77  68  73 NW5       29.89S
CENTERVILLE *  SUNNY     77  66  69 NW7       29.91F
OTTUMWA        CLOUDY    77  68  73 W5        29.87S
WASHINGTON *   MOSUNNY   81  66  61 NW10      29.88S HX  83
$$

ABBREVIATIONS USED IN REMARKS
   TC - TEMPERATURES IN CELSIUS
  WCI - WIND CHILL INDEX
   HX - HEAT INDEX
  VSB - VISIBILITY
$$



USA.gov is the U.S. government's official web portal to all federal, state and local government web resources and services.